Location: Gleizolles
(44.4833°N, 6.7667°E)
Time: 17:02:16
(UTC+00:00)

Transit 2A - Pass Details

Date: 30 June 2024
Orbit: 591 x 960 km, 66.7° (Epoch: 16 July)

Event Time Altitude Azimuth Distance (km) Brightness Sun altitude
Rises 21:02:12 0° 329° (NNW) 3,550 11.4 -13.7°
Reaches altitude 10° 21:04:43 10° 331° (NNW) 2,639 10.2 -14.0°
Maximum altitude 21:10:56 70° 56° (NE) 1,014 6.6 -14.6°
Enters shadow 21:15:17 21° 136° (SE) 1,991 7.5 -15.1°
